Location: Newark
(34.9850°N, 80.4472°W)
Time: 20:40:35
(UTC+00:00)

N. Korean satellite - Visible Passes

Search period start: 26 January 2020 00:00
Search period end: 05 February 2020 00:00
Orbit: 454 x 507 km, 97.2° (Epoch: 26 January)

Date Brightness Start Highest point End Pass type
(mag) Time Alt. Az. Time Alt. Az. Time Alt. Az.
26 Jan 10.1 10:07:04 10° ENE 10:08:30 12° E 10:09:55 10° ESE visible
26 Jan 7.3 11:38:42 10° N 11:41:56 32° WNW 11:45:11 10° SW visible
27 Jan 6.4 11:12:54 10° N 11:16:31 76° WNW 11:20:09 10° SSW visible
27 Jan 9.8 23:19:44 10° SW 23:21:52 16° W 23:24:00 10° NW visible
28 Jan 7.8 10:47:32 10° NNE 10:51:02 44° E 10:54:32 10° S visible
29 Jan 9.3 10:22:42 10° NE 10:25:27 20° E 10:28:13 10° SE visible
29 Jan 7.9 11:56:02 10° NNW 11:58:42 20° WNW 12:01:23 10° WSW visible
30 Jan 6.9 11:29:53 10° N 11:33:20 42° WNW 11:36:49 10° SSW visible
31 Jan 6.7 11:04:15 10° NNE 11:07:53 81° E 11:11:34 10° S visible
01 Feb 8.4 10:39:01 10° NNE 10:42:23 34° E 10:45:45 10° SSE visible
02 Feb 9.7 10:14:27 10° NE 10:16:46 16° E 10:19:05 10° SE visible
02 Feb 7.6 11:47:04 10° NNW 11:50:06 25° WNW 11:53:10 10° SW visible
03 Feb 6.6 11:21:07 10° N 11:24:43 56° WNW 11:28:20 10° SSW visible
03 Feb 10.1 23:28:40 10° WSW 23:30:04 12° W 23:31:29 10° WNW visible
04 Feb 7.2 10:55:37 10° NNE 10:59:15 61° E 11:02:54 10° S visible
